FCG306 SBBR-SBRP

Flight info

Callsign FCG306
Flight time N/A
Altitude 38000
Route KUKOL UZ5 UDIGI/N0467F370
Aircraft B738/M-SDE2E3FGHIRWXY/LB1

Departure

Time 2026-05-07 00:29
Airport Presidente Juscelino Kubitschek International Airport (SBBR)

Arrival

Time N/A
Airport Leite Lopes Airport (SBRP)
Time Latitude Longitude Altitude Speed Heading
2026-05-07 00:06 -15.86845 -47.92577 3479 ft 0 kts 178°
2026-05-07 00:21 -15.86838 -47.92577 3475 ft 4 kts 175°
2026-05-07 00:21 -15.86813 -47.92583 3476 ft 4 kts 146°
2026-05-07 00:21 -15.86798 -47.92602 3475 ft 4 kts 96°
2026-05-07 00:21 -15.86797 -47.92610 3475 ft 1 kts 86°
2026-05-07 00:24 -15.86797 -47.92605 3475 ft 3 kts 86°
2026-05-07 00:25 -15.86794 -47.92572 3476 ft 5 kts 86°
2026-05-07 00:25 -15.86791 -47.92539 3479 ft 5 kts 81°
2026-05-07 00:25 -15.86768 -47.92515 3475 ft 5 kts 36°
2026-05-07 00:25 -15.86735 -47.92497 3476 ft 7 kts 27°
2026-05-07 00:26 -15.86679 -47.92466 3474 ft 11 kts 27°
2026-05-07 00:26 -15.86607 -47.92427 3475 ft 11 kts 28°
2026-05-07 00:26 -15.86558 -47.92415 3474 ft 7 kts 342°
2026-05-07 00:26 -15.86533 -47.92456 3472 ft 7 kts 276°
2026-05-07 00:27 -15.86534 -47.92506 3475 ft 8 kts 267°
2026-05-07 00:27 -15.86540 -47.92601 3469 ft 18 kts 266°
2026-05-07 00:27 -15.86549 -47.92730 3459 ft 19 kts 265°
2026-05-07 00:27 -15.86482 -47.92766 3459 ft 13 kts 357°
2026-05-07 00:28 -15.86405 -47.92753 3458 ft 13 kts 35°
2026-05-07 00:28 -15.86358 -47.92702 3458 ft 9 kts 73°
2026-05-07 00:28 -15.86343 -47.92521 3461 ft 59 kts 86°
2026-05-07 00:28 -15.86304 -47.91884 3466 ft 124 kts 86°
2026-05-07 00:29 -15.86231 -47.90821 3643 ft 161 kts 88°
2026-05-07 00:29 -15.86197 -47.89671 4098 ft 188 kts 91°
2026-05-07 00:30 -15.88779 -47.87031 5647 ft 225 kts 174°
2026-05-07 00:30 -15.90414 -47.86956 5852 ft 243 kts 173°
2026-05-07 00:30 -15.92139 -47.86820 6206 ft 253 kts 171°
2026-05-07 00:30 -15.92715 -47.86763 6322 ft 258 kts 171°
2026-05-07 00:31 -16.00093 -47.85643 8655 ft 286 kts 167°
2026-05-07 00:31 -16.02041 -47.85298 9052 ft 288 kts 167°
2026-05-07 00:32 -16.04068 -47.85283 9167 ft 301 kts 191°
2026-05-07 00:32 -16.05920 -47.86295 9192 ft 307 kts 221°
2026-05-07 00:32 -16.07097 -47.88160 9497 ft 315 kts 252°
2026-05-07 00:32 -16.07476 -47.90391 10367 ft 314 kts 267°
2026-05-07 00:33 -16.07589 -47.92705 10790 ft 332 kts 268°
2026-05-07 00:33 -16.07697 -47.95200 10957 ft 356 kts 268°
2026-05-07 00:33 -16.07892 -47.97851 11112 ft 378 kts 260°
2026-05-07 00:33 -16.08862 -48.00455 11259 ft 397 kts 240°
2026-05-07 00:34 -16.10263 -48.02974 11614 ft 406 kts 239°
2026-05-07 00:34 -16.11676 -48.05536 12163 ft 409 kts 240°
2026-05-07 00:34 -16.13069 -48.08132 12751 ft 412 kts 240°
2026-05-07 00:34 -16.14450 -48.10748 13327 ft 414 kts 241°
2026-05-07 00:35 -16.15835 -48.13389 13885 ft 417 kts 241°
2026-05-07 00:35 -16.17232 -48.16053 14381 ft 420 kts 241°
2026-05-07 00:35 -16.18638 -48.18731 14905 ft 422 kts 240°
2026-05-07 00:35 -16.20049 -48.21417 15444 ft 424 kts 240°
2026-05-07 00:36 -16.21463 -48.24110 15962 ft 425 kts 240°
2026-05-07 00:36 -16.22892 -48.26770 16459 ft 427 kts 236°
2026-05-07 00:36 -16.24880 -48.29054 16893 ft 428 kts 217°
2026-05-07 00:36 -16.27453 -48.30575 17389 ft 427 kts 200°
2026-05-07 00:37 -16.30265 -48.31571 17883 ft 428 kts 197°
2026-05-07 00:37 -16.33114 -48.32513 18297 ft 431 kts 197°
2026-05-07 00:37 -16.35989 -48.33456 18665 ft 433 kts 197°
2026-05-07 00:37 -16.38866 -48.34411 19062 ft 434 kts 197°
2026-05-07 00:38 -16.40762 -48.35050 19354 ft 434 kts 197°
2026-05-07 00:38 -16.43636 -48.36029 19780 ft 434 kts 197°
2026-05-07 00:38 -16.46505 -48.37015 20182 ft 435 kts 197°
2026-05-07 00:38 -16.49378 -48.38008 20565 ft 436 kts 197°
2026-05-07 00:39 -16.52260 -48.39005 20936 ft 437 kts 197°
2026-05-07 00:39 -16.55148 -48.40005 21316 ft 438 kts 197°
2026-05-07 00:39 -16.58040 -48.41006 21683 ft 439 kts 197°
2026-05-07 00:39 -16.61890 -48.42338 22154 ft 440 kts 196°
2026-05-07 00:40 -16.63854 -48.43017 22386 ft 441 kts 196°
2026-05-07 00:40 -16.66771 -48.44027 22724 ft 442 kts 196°
2026-05-07 00:40 -16.69682 -48.44943 22989 ft 443 kts 190°
2026-05-07 00:40 -16.72737 -48.45349 23285 ft 443 kts 183°
2026-05-07 00:41 -16.75817 -48.45575 23653 ft 442 kts 182°
2026-05-07 00:41 -16.78893 -48.45766 23928 ft 443 kts 182°
2026-05-07 00:41 -16.81979 -48.45963 24176 ft 444 kts 182°
2026-05-07 00:41 -16.85071 -48.46179 24423 ft 445 kts 183°
2026-05-07 00:42 -16.88168 -48.46414 24669 ft 446 kts 183°
2026-05-07 00:42 -16.91269 -48.46663 24912 ft 447 kts 183°
2026-05-07 00:42 -16.94370 -48.46919 25154 ft 448 kts 184°
2026-05-07 00:42 -16.97483 -48.47181 25378 ft 449 kts 184°
2026-05-07 00:43 -17.00564 -48.47441 25615 ft 450 kts 184°
2026-05-07 00:43 -17.03685 -48.47705 25842 ft 451 kts 184°
2026-05-07 00:43 -17.06811 -48.47969 26060 ft 451 kts 184°
2026-05-07 00:43 -17.09944 -48.48233 26267 ft 452 kts 184°
2026-05-07 00:44 -17.13086 -48.48497 26470 ft 453 kts 184°
2026-05-07 00:44 -17.16244 -48.48763 26673 ft 454 kts 184°
2026-05-07 00:44 -17.19391 -48.49028 26895 ft 455 kts 184°
2026-05-07 00:44 -17.22554 -48.49294 27085 ft 456 kts 184°
2026-05-07 00:45 -17.25716 -48.49560 27301 ft 455 kts 184°
2026-05-07 00:45 -17.28869 -48.49826 27553 ft 454 kts 184°
2026-05-07 00:45 -17.32016 -48.50091 27850 ft 452 kts 184°
2026-05-07 00:45 -17.35148 -48.50355 28165 ft 451 kts 184°
2026-05-07 00:46 -17.38269 -48.50618 28482 ft 449 kts 185°
2026-05-07 00:46 -17.41376 -48.50880 28800 ft 447 kts 185°
2026-05-07 00:46 -17.44472 -48.51141 29126 ft 446 kts 185°
2026-05-07 00:46 -17.47560 -48.51402 29486 ft 444 kts 185°
2026-05-07 00:47 -17.50628 -48.51661 29844 ft 442 kts 185°
2026-05-07 00:47 -17.53691 -48.51919 30181 ft 441 kts 185°
2026-05-07 00:47 -17.56746 -48.52177 30478 ft 439 kts 185°
2026-05-07 00:47 -17.59789 -48.52435 30753 ft 439 kts 185°
2026-05-07 00:48 -17.62839 -48.52693 31003 ft 439 kts 185°
2026-05-07 00:48 -17.65881 -48.52950 31292 ft 438 kts 185°
2026-05-07 00:48 -17.68879 -48.53203 31587 ft 437 kts 186°
2026-05-07 00:48 -17.71914 -48.53461 31886 ft 437 kts 186°
2026-05-07 00:49 -17.74939 -48.53725 32191 ft 436 kts 186°
2026-05-07 00:49 -17.77959 -48.53994 32512 ft 435 kts 186°
2026-05-07 00:49 -17.80979 -48.54265 32826 ft 434 kts 186°
2026-05-07 00:49 -17.83988 -48.54535 33150 ft 434 kts 186°
2026-05-07 00:50 -17.86993 -48.54804 33476 ft 433 kts 186°
2026-05-07 00:50 -17.89996 -48.55072 33806 ft 432 kts 186°
2026-05-07 00:50 -17.92986 -48.55339 34115 ft 431 kts 186°
2026-05-07 00:50 -17.95939 -48.55602 34373 ft 431 kts 187°
2026-05-07 00:51 -17.98923 -48.55869 34644 ft 430 kts 187°
2026-05-07 00:51 -18.01897 -48.56134 34932 ft 429 kts 187°
2026-05-07 00:51 -18.04866 -48.56399 35201 ft 428 kts 187°
2026-05-07 00:51 -18.07831 -48.56663 35455 ft 427 kts 187°
2026-05-07 00:52 -18.10791 -48.56928 35729 ft 426 kts 187°
2026-05-07 00:52 -18.13751 -48.57192 36015 ft 425 kts 187°
2026-05-07 00:52 -18.16697 -48.57455 36273 ft 425 kts 187°
2026-05-07 00:52 -18.19642 -48.57719 36513 ft 424 kts 187°
2026-05-07 00:53 -18.22584 -48.57982 36766 ft 424 kts 187°
2026-05-07 00:53 -18.25522 -48.58245 37038 ft 423 kts 187°
2026-05-07 00:53 -18.28446 -48.58507 37327 ft 421 kts 187°
2026-05-07 00:53 -18.31322 -48.58764 37619 ft 419 kts 188°
2026-05-07 00:54 -18.34231 -48.59029 37845 ft 419 kts 188°
2026-05-07 00:54 -18.37141 -48.59298 38055 ft 419 kts 188°
2026-05-07 00:54 -18.42974 -48.59837 38102 ft 421 kts 188°
2026-05-07 00:55 -18.48800 -48.60374 38111 ft 419 kts 188°
2026-05-07 00:55 -18.54601 -48.60909 38120 ft 417 kts 188°
2026-05-07 00:56 -18.60378 -48.61442 38111 ft 417 kts 188°
2026-05-07 00:56 -18.66159 -48.61976 38106 ft 416 kts 188°
2026-05-07 00:57 -18.71885 -48.62500 38117 ft 415 kts 188°
2026-05-07 00:57 -18.77650 -48.63021 38114 ft 416 kts 188°
2026-05-07 00:58 -18.83421 -48.63544 38110 ft 415 kts 188°
2026-05-07 00:58 -18.89197 -48.64069 38115 ft 415 kts 188°
2026-05-07 00:59 -18.97808 -48.64852 38113 ft 415 kts 188°
2026-05-07 01:00 -19.03571 -48.65376 38112 ft 416 kts 188°
2026-05-07 01:00 -19.09342 -48.65902 38119 ft 416 kts 188°
2026-05-07 01:01 -19.15133 -48.66160 38112 ft 420 kts 179°
2026-05-07 01:01 -19.20909 -48.64907 38109 ft 430 kts 165°
2026-05-07 01:02 -19.26458 -48.62465 38111 ft 432 kts 162°
2026-05-07 01:02 -19.31974 -48.59929 38117 ft 431 kts 162°
2026-05-07 01:03 -19.37279 -48.57508 38106 ft 429 kts 162°
2026-05-07 01:03 -19.42723 -48.55006 38124 ft 429 kts 162°
2026-05-07 01:04 -19.48191 -48.52474 38134 ft 429 kts 162°
2026-05-07 01:04 -19.53654 -48.49935 38150 ft 429 kts 162°
2026-05-07 01:05 -19.58681 -48.47595 38167 ft 429 kts 162°
2026-05-07 01:05 -19.64151 -48.45046 38169 ft 429 kts 162°
2026-05-07 01:06 -19.69621 -48.42497 38066 ft 432 kts 162°
2026-05-07 01:06 -19.72392 -48.41211 37549 ft 436 kts 162°
2026-05-07 01:06 -19.75170 -48.39933 37085 ft 434 kts 162°
2026-05-07 01:06 -19.77937 -48.38686 36612 ft 430 kts 162°
2026-05-07 01:07 -19.80687 -48.37458 36159 ft 429 kts 162°
2026-05-07 01:07 -19.83450 -48.36229 35646 ft 432 kts 162°
2026-05-07 01:07 -19.86233 -48.34989 35127 ft 434 kts 162°
2026-05-07 01:07 -19.89023 -48.33742 34538 ft 435 kts 161°
2026-05-07 01:08 -19.91819 -48.32491 33927 ft 449 kts 161°
2026-05-07 01:08 -19.94716 -48.31192 33222 ft 450 kts 161°